Wetbulb
63.88 63.56 62.21 61.50 61.40 60.99 60.53 60.06 59.51 58.54 57.84 57.34 56.98 56.22 55.45 55.45 55.69 55.61 57.43 57.77 58.89 59.53 60.11 59.20 58.35 57.02 55.76 54.65 54.06 54.42 53.63 53.27 52.78 52.57 52.51 52.32 51.64 51.24 50.76 50.70 50.43 50.68 50.98
63.64 61.81 61.12 60.94 60.14 60.92 60.64 59.92 58.88 58.20 57.62 57.14 55.86 55.11 54.17 54.31 54.32 54.66 55.75 56.78 55.89 57.32 56.99 57.05 57.01 56.85 55.38 53.75 52.85 52.72 52.32 51.87 51.76 51.83 51.80 51.69 51.40 51.16 50.56 49.95 49.72 49.65 49.87
62.82 62.50 61.56 60.88 60.58 60.60 59.74 59.27 58.63 57.94 57.28 56.01 54.21 53.96 54.38 54.17 53.65 54.17 55.14 55.11 55.36 53.53 53.32 53.49 52.90 52.01 51.66 51.46 51.16 50.91 51.15 51.39 51.10 51.37 51.30 50.85 50.83 50.50 49.62 49.22 48.60 48.60 48.77
63.10 62.50 61.54 60.77 60.29 59.80 59.08 58.77 58.30 57.36 56.75 55.95 54.68 54.30 54.57 54.01 53.63 53.44 54.43 54.88 55.08 53.93 51.17 49.92 50.33 49.77 49.81 50.03 49.96 50.02 50.07 49.82 50.15 50.42 50.55 50.70 50.16 49.90 48.76 48.90 48.58 48.24 48.52
62.46 62.41 61.27 60.33 60.12 58.92 58.75 58.02 57.48 57.74 54.44 54.57 53.88 53.02 52.85 52.14 51.59 51.19 51.37 51.64 51.40 52.34 51.62 46.92 47.45 47.58 47.48 47.04 47.03 47.34 48.19 49.04 49.25 49.49 49.83 50.18 50.21 50.22 49.51 49.19 48.26 48.16 48.34
61.70 61.73 60.83 59.76 59.33 58.22 57.64 57.33 55.45 55.35 55.34 54.43 50.19 50.67 51.46 51.43 51.54 51.19 50.33 50.07 51.18 51.21 50.28 49.14 49.65 48.14 45.18 45.21 45.07 45.45 46.58 47.40 47.93 47.99 48.01 48.19 48.15 48.14 48.29 48.27 48.07 48.11 48.27
61.15 61.24 60.03 59.08 58.69 57.79 57.24 56.37 54.30 52.48 52.35 53.69 51.37 50.70 50.36 50.07 49.64 49.84 50.06 49.88 48.79 49.06 49.58 48.96 48.17 47.54 47.46 43.81 43.25 44.10 44.58 45.46 45.97 46.71 46.62 46.87 46.97 47.11 47.23 47.65 47.85 47.74 47.88
61.10 60.43 59.64 58.37 58.17 56.91 55.72 54.44 52.95 51.54 52.56 52.22 50.91 50.45 49.28 49.26 48.61 48.47 48.95 48.13 48.52 48.57 47.58 46.97 46.68 46.07 46.02 46.01 44.94 41.64 42.59 43.82 44.93 45.78 45.58 45.61 45.90 46.19 46.54 46.92 47.38 47.64 47.60
60.72 59.69 59.04 58.15 57.38 56.20 53.97 53.65 53.01 51.25 50.30 51.25 51.38 48.28 47.94 46.01 48.48 48.90 47.48 47.60 47.37 47.28 47.40 46.68 46.11 45.58 45.56 45.68 44.37 44.34 42.01 41.98 42.91 43.85 44.29 44.44 44.67 44.85 45.21 45.74 46.13 46.54 46.87
59.58 58.53 58.06 57.35 56.04 53.80 52.61 52.02 51.87 52.08 51.56 48.78 49.53 49.71 49.93 47.56 43.59 43.12 46.78 46.74 46.92 45.90 46.72 46.37 46.26 45.95 45.52 45.65 43.58 41.58 39.94 40.04 40.55 42.02 42.65 43.15 43.66 44.03 44.31 44.64 44.95 45.52 46.02
56.69 57.07 56.13 54.96 53.58 52.61 52.23 51.71 51.66 51.06 51.75 50.65 49.04 50.13 47.98 47.14 46.24 43.04 41.54 43.78 45.61 45.81 46.19 46.14 46.02 45.43 45.43 45.17 45.03 43.27 38.40 38.46 38.61 39.55 40.01 40.74 41.60 42.18 42.70 43.25 43.64 44.15 44.48
52.81 53.49 53.50 53.55 53.13 51.94 51.24 51.57 50.11 50.33 51.25 49.62 50.09 48.33 46.16 45.19 44.92 43.56 41.78 42.32 42.21 43.93 45.37 45.18 45.03 45.08 45.27 44.79 42.93 36.52 38.16 37.70 37.12 37.23 37.77 38.45 39.45 40.32 40.99 41.67 42.01 42.50 42.97
50.54 52.77 52.28 51.25 49.05 49.81 50.91 49.98 48.51 48.18 48.79 49.58 48.27 47.37 47.95 46.52 45.77 44.20 42.44 41.48 40.88 43.14 43.38 44.35 44.58 44.69 43.95 43.88 43.10 37.46 38.29 37.88 35.90 35.77 36.25 36.90 37.70 38.52 39.08 39.68 40.38 41.06 41.78
49.17 51.10 47.70 49.24 49.65 49.18 49.24 47.80 48.29 48.13 50.19 49.06 48.48 48.13 46.96 46.51 46.10 44.87 43.04 41.32 39.09 40.13 41.78 42.11 44.56 44.21 43.64 43.20 41.22 37.51 39.43 38.47 36.29 34.88 34.95 35.60 36.00 36.61 37.23 37.91 38.48 39.33 40.19
50.96 49.10 48.12 47.90 49.14 48.70 47.89 47.66 48.03 49.39 47.82 48.89 48.67 48.12 46.62 46.02 46.39 45.81 44.70 43.50 40.11 36.18 37.32 40.86 40.44 43.14 42.84 42.12 41.19 39.89 39.02 37.91 35.26 34.20 34.04 34.15 34.89 35.53 35.78 36.36 37.13 37.50 38.20
52.06 50.39 48.29 47.57 46.19 46.52 47.16 47.95 48.90 47.91 47.98 47.92 47.97 46.98 45.90 45.54 45.09 45.21 44.19 43.56 42.38 39.75 36.37 40.61 40.83 41.78 41.69 40.24 40.25 38.81 38.44 36.42 35.76 35.30 33.97 33.65 33.67 33.98 34.28 34.87 35.38 35.81 36.07
52.36 48.81 45.72 45.06 44.78 46.74 48.05 47.06 46.61 46.81 45.40 45.47 46.77 45.52 45.17 44.78 43.93 44.07 44.03 43.19 42.18 41.26 37.76 39.75 41.17 41.45 40.03 39.00 38.71 39.07 38.22 37.06 36.91 36.01 34.33 33.34 32.64 32.49 33.11 33.56 33.75 34.36 34.76
47.83 44.76 44.91 44.49 44.89 47.64 46.97 44.74 45.06 43.87 43.16 43.41 44.42 44.94 43.99 43.49 43.96 44.38 43.85 42.68 42.20 42.00 39.70 37.25 39.50 39.09 39.12 39.10 38.00 36.76 35.96 35.96 36.56 35.93 33.83 32.81 32.32 32.17 32.49 33.01 33.12 33.49 33.84
45.07 45.56 44.44 43.16 44.06 43.83 44.71 44.10 43.73 42.34 43.12 43.83 44.80 44.28 43.94 44.16 43.62 43.90 43.49 42.57 42.29 41.09 40.69 38.10 37.05 38.84 38.52 37.99 36.62 36.27 35.49 35.89 35.85 35.24 34.54 34.18 32.81 32.55 32.65 32.76 33.05 33.35 33.80
46.52 44.59 44.06 44.55 43.09 44.60 44.37 42.72 43.28 44.30 45.26 44.88 43.74 44.55 44.48 44.17 43.71 43.74 43.23 42.78 41.84 40.60 40.14 38.01 36.81 36.54 36.69 36.86 35.83 33.48 32.91 34.77 34.03 34.90 34.97 34.46 33.32 33.30 33.50 33.33 33.29 33.74 33.88
46.23 43.14 42.81 42.39 44.28 43.04 44.52 44.29 44.04 42.98 44.48 43.90 44.55 44.58 44.67 43.72 41.33 41.79 42.66 42.08 41.63 39.67 38.89 37.02 35.89 35.66 34.66 34.07 33.00 33.72 31.68 32.97 33.70 34.79 33.98 34.64 34.75 34.85 35.83 35.34 34.96 34.65 33.45
42.70 41.42 42.23 41.65 43.82 43.82 39.29 39.02 39.78 42.66 43.45 42.91 43.00 43.49 44.22 42.18 41.01 38.10 37.80 37.25 38.75 40.03 37.76 36.42 35.70 33.70 33.53 33.84 34.07 32.23 31.34 30.06 28.39 35.38 32.59 31.82 34.46 33.51 35.03 36.19 34.96 33.75 33.44
41.49 40.74 42.20 42.98 42.74 43.62 39.81 38.35 37.03 39.68 41.22 42.93 42.57 42.40 42.11 42.46 40.68 42.23 37.47 35.19 33.72 32.85 33.31 37.10 35.20 34.47 33.45 34.28 33.76 31.32 31.16 30.56 29.76 32.46 31.95 29.74 33.69 32.24 35.18 35.61 34.88 34.17 34.01
42.25 43.18 42.95 43.05 42.46 43.00 38.34 36.84 36.41 39.28 42.39 41.97 41.95 41.73 41.44 41.59 42.11 41.43 41.01 39.61 37.89 38.39 35.65 34.17 35.25 35.59 35.54 35.42 33.87 32.36 31.59 31.42 32.25 33.29 33.47 28.03 32.63 31.62 34.13 35.21 34.74 34.88 32.70
44.53 43.24 42.49 42.85 41.88 43.40 37.68 37.69 38.02 41.29 40.13 40.14 40.84 41.21 41.25 40.87 38.76 37.23 39.00 38.33 38.40 38.11 35.67 34.38 33.65 32.43 30.38 29.44 29.68 31.45 29.64 28.89 28.26 30.20 32.92 30.42 30.72 30.08 31.90 32.89 35.43 34.38 34.12
43.62 42.40 40.69 39.50 37.65 38.73 38.82 37.79 37.03 39.84 38.43 38.99 40.15 40.23 36.61 37.57 36.09 34.67 37.74 37.70 36.05 37.20 37.16 34.94 33.12 31.65 30.93 32.21 29.65 31.12 31.18 28.33 28.51 27.74 32.13 29.07 29.46 29.12 26.53 31.86 33.26 34.09 34.89
MSLP
1022.63 1022.90 1023.50 1023.64 1023.88 1024.18 1024.24 1024.46 1024.66 1024.80 1025.19 1025.28 1025.53 1025.73 1025.77 1025.89 1025.89 1025.59 1025.63 1026.84 1026.56 1026.33 1026.34 1026.42 1026.60 1026.80 1026.98 1027.09 1027.15 1027.17 1027.18 1027.07 1026.93 1026.84 1026.75 1026.75 1026.74 1026.69 1026.62 1026.56 1026.46 1026.28 1026.03
1022.76 1023.11 1023.57 1023.68 1024.12 1023.97 1024.05 1024.31 1024.60 1024.80 1024.85 1024.97 1025.33 1025.81 1025.90 1025.86 1026.21 1026.17 1025.89 1026.59 1027.10 1026.83 1026.89 1026.78 1026.80 1026.98 1027.08 1027.18 1027.30 1027.22 1027.17 1027.10 1027.02 1026.92 1026.81 1026.65 1026.70 1026.66 1026.58 1026.49 1026.47 1026.31 1026.07
1023.10 1023.08 1023.19 1023.66 1023.89 1024.10 1024.28 1024.91 1024.91 1024.96 1025.11 1025.20 1025.55 1025.73 1025.94 1026.31 1026.36 1026.42 1026.11 1026.23 1026.48 1027.42 1027.56 1027.50 1027.52 1027.48 1027.46 1027.45 1027.38 1027.31 1027.20 1027.14 1027.05 1026.89 1026.75 1026.65 1026.72 1026.66 1026.55 1026.56 1026.43 1026.30 1026.07
1022.96 1023.10 1023.22 1023.64 1023.92 1024.18 1023.95 1024.39 1024.40 1024.91 1025.07 1025.26 1025.65 1025.75 1026.03 1026.33 1026.69 1026.59 1026.53 1026.41 1026.43 1026.39 1027.62 1027.95 1027.90 1027.86 1027.77 1027.68 1027.62 1027.47 1027.35 1027.28 1027.18 1027.00 1026.77 1026.55 1026.54 1026.34 1026.38 1026.42 1026.30 1026.14 1025.92
1022.74 1022.89 1023.00 1023.80 1024.12 1023.92 1024.03 1024.21 1024.40 1025.05 1025.03 1025.42 1025.80 1025.76 1026.01 1026.20 1026.49 1026.47 1026.74 1026.86 1027.06 1026.91 1026.80 1028.03 1028.12 1028.18 1028.18 1028.04 1027.90 1027.78 1027.63 1027.48 1027.32 1027.14 1026.92 1026.71 1026.49 1026.28 1026.13 1026.10 1026.07 1025.93 1025.68
1022.74 1023.12 1023.23 1023.96 1023.87 1023.76 1024.04 1024.21 1024.42 1025.21 1025.29 1025.44 1025.82 1026.14 1026.35 1026.36 1026.38 1026.40 1026.59 1026.74 1027.01 1027.26 1027.23 1027.37 1027.23 1027.37 1028.25 1028.41 1028.23 1028.03 1027.88 1027.69 1027.55 1027.40 1027.22 1027.02 1026.74 1026.53 1026.34 1026.06 1025.82 1025.61 1025.34
1022.66 1022.92 1022.96 1023.82 1023.77 1023.65 1023.93 1024.34 1024.75 1025.34 1025.60 1026.02 1026.08 1026.00 1026.16 1026.56 1026.52 1026.37 1026.53 1026.50 1026.96 1027.31 1027.48 1027.40 1027.37 1027.27 1027.28 1028.03 1028.35 1028.37 1028.17 1028.00 1027.82 1027.60 1027.40 1027.15 1026.82 1026.58 1026.36 1026.00 1025.56 1025.25 1024.97
1022.37 1022.44 1022.85 1023.16 1023.65 1023.85 1024.10 1024.51 1024.90 1025.11 1025.53 1026.08 1025.72 1025.43 1024.54 1025.05 1025.88 1026.40 1026.45 1026.75 1027.09 1027.13 1027.17 1027.51 1027.63 1027.61 1027.55 1027.28 1027.65 1028.33 1028.40 1028.32 1028.01 1027.75 1027.50 1027.23 1026.90 1026.52 1026.13 1025.69 1025.25 1024.84 1024.56
1022.02 1022.15 1022.73 1022.90 1023.44 1023.66 1023.83 1024.34 1024.67 1024.95 1025.16 1025.87 1026.07 1025.61 1024.27 1023.96 1024.56 1025.05 1026.36 1026.47 1026.83 1026.87 1026.89 1027.03 1027.28 1027.50 1027.53 1027.47 1027.51 1027.50 1028.23 1028.35 1028.19 1027.90 1027.60 1027.29 1026.94 1026.54 1026.10 1025.62 1025.14 1024.68 1024.25
1021.69 1022.07 1022.53 1022.95 1023.11 1023.27 1023.64 1024.15 1024.54 1024.90 1025.03 1025.10 1025.68 1025.66 1025.50 1025.16 1024.69 1024.30 1025.26 1025.88 1026.47 1026.56 1026.51 1026.84 1026.70 1026.95 1027.23 1027.18 1027.32 1027.78 1028.33 1028.44 1028.33 1028.02 1027.68 1027.32 1026.94 1026.48 1025.99 1025.51 1025.01 1024.46 1023.95
1021.81 1021.91 1022.44 1022.88 1023.12 1023.39 1023.78 1024.15 1024.82 1025.49 1025.35 1024.60 1024.68 1024.89 1025.29 1025.33 1025.51 1025.27 1024.48 1024.40 1024.98 1025.54 1025.93 1026.24 1026.55 1026.70 1026.69 1026.85 1027.01 1027.23 1028.04 1028.23 1028.10 1027.84 1027.53 1027.17 1026.77 1026.29 1025.80 1025.32 1024.80 1024.26 1023.79
1022.27 1022.20 1022.26 1022.65 1022.90 1023.19 1023.81 1024.50 1025.42 1025.46 1025.15 1025.22 1024.51 1024.71 1024.86 1024.82 1024.70 1024.90 1024.76 1024.62 1024.64 1025.11 1025.53 1026.04 1026.21 1026.22 1026.32 1026.61 1026.89 1027.71 1027.87 1027.84 1027.69 1027.60 1027.30 1026.96 1026.56 1026.09 1025.59 1025.11 1024.65 1024.11 1023.59
1021.88 1021.96 1022.51 1022.75 1023.19 1023.39 1023.84 1024.64 1025.28 1025.37 1025.45 1024.88 1024.81 1024.84 1024.91 1024.93 1025.11 1025.16 1025.12 1024.75 1024.71 1024.85 1025.07 1025.68 1025.94 1025.99 1026.14 1026.38 1026.54 1027.28 1027.40 1027.31 1027.29 1027.26 1027.02 1026.65 1026.24 1025.79 1025.34 1024.80 1024.28 1023.73 1023.21
1021.40 1021.75 1022.72 1023.18 1023.36 1023.77 1024.18 1024.94 1025.28 1025.12 1025.03 1024.95 1024.99 1025.03 1024.85 1024.90 1025.07 1025.19 1025.07 1025.04 1024.75 1024.57 1024.39 1024.41 1024.77 1025.34 1025.79 1026.09 1026.36 1027.06 1026.70 1026.58 1026.59 1026.65 1026.54 1026.18 1025.79 1025.37 1024.83 1024.32 1023.83 1023.31 1022.71
1020.83 1021.67 1022.48 1022.77 1023.40 1023.93 1024.19 1024.77 1024.83 1024.62 1024.84 1024.77 1024.95 1025.05 1025.02 1024.94 1025.01 1025.20 1025.33 1025.27 1025.12 1024.72 1024.14 1024.07 1024.30 1024.71 1025.46 1025.97 1026.00 1026.30 1026.25 1026.01 1026.14 1026.18 1025.92 1025.66 1025.28 1024.82 1024.36 1023.89 1023.36 1022.88 1022.35
1020.29 1021.04 1021.91 1022.53 1023.46 1024.01 1024.41 1024.07 1024.21 1024.41 1024.61 1024.83 1024.87 1024.79 1024.84 1024.74 1024.78 1024.92 1024.97 1025.00 1025.21 1024.94 1024.27 1024.22 1024.10 1024.42 1025.19 1025.56 1025.62 1025.84 1025.66 1025.60 1025.28 1025.12 1025.04 1024.90 1024.64 1024.33 1023.95 1023.44 1022.88 1022.41 1022.04
1019.76 1020.55 1021.09 1021.91 1023.21 1023.71 1023.43 1023.67 1024.02 1024.04 1024.63 1024.70 1024.71 1024.73 1024.51 1024.60 1024.59 1024.56 1024.70 1024.81 1024.78 1024.67 1024.08 1023.83 1023.96 1024.05 1024.63 1025.23 1025.19 1025.05 1025.01 1024.72 1024.22 1024.15 1024.19 1024.19 1024.04 1023.74 1023.27 1022.77 1022.34 1021.89 1021.44
1019.91 1020.75 1021.21 1021.99 1022.47 1022.61 1022.77 1023.51 1023.75 1024.40 1024.59 1024.74 1024.27 1024.23 1024.21 1024.19 1024.33 1024.26 1024.16 1024.23 1024.24 1024.12 1023.94 1023.48 1023.67 1023.77 1023.91 1024.23 1024.65 1024.76 1024.46 1024.07 1023.60 1023.33 1023.48 1023.52 1023.32 1022.92 1022.53 1022.11 1021.70 1021.24 1020.79
1019.73 1020.35 1020.90 1021.29 1021.60 1022.29 1022.61 1023.24 1023.56 1024.21 1024.68 1024.51 1023.73 1023.52 1023.56 1023.65 1023.56 1023.60 1023.55 1023.61 1023.53 1023.45 1023.52 1023.57 1023.37 1023.52 1023.51 1023.75 1023.87 1023.92 1023.76 1023.32 1022.85 1022.60 1022.49 1022.29 1022.24 1022.02 1021.77 1021.36 1020.93 1020.47 1020.06
1019.40 1019.95 1020.46 1020.97 1021.51 1021.88 1022.52 1023.44 1023.74 1024.27 1024.05 1023.63 1023.52 1023.27 1023.02 1022.91 1022.85 1023.01 1022.90 1022.83 1022.99 1023.01 1023.00 1023.07 1022.96 1022.86 1022.93 1023.09 1023.39 1023.28 1022.71 1022.55 1022.15 1021.94 1021.57 1021.27 1021.24 1020.82 1020.52 1020.18 1019.91 1019.53 1019.20
1019.24 1020.15 1020.61 1021.28 1021.83 1022.28 1023.11 1023.51 1023.82 1023.96 1023.56 1023.16 1022.88 1022.58 1022.29 1022.13 1022.36 1022.31 1022.24 1022.07 1022.31 1022.47 1022.61 1022.53 1022.32 1022.27 1022.28 1022.39 1022.50 1022.67 1022.61 1022.15 1021.81 1021.36 1020.77 1020.43 1020.11 1019.61 1018.87 1018.62 1018.48 1018.41 1018.47
1019.61 1020.23 1020.74 1021.24 1021.94 1023.13 1023.32 1023.64 1024.09 1023.75 1023.23 1022.69 1022.15 1021.81 1021.51 1021.55 1021.58 1022.00 1021.96 1021.81 1021.93 1021.91 1022.14 1022.27 1021.98 1021.79 1021.84 1022.07 1022.28 1022.48 1022.33 1021.94 1021.00 1020.79 1020.62 1020.26 1019.78 1018.96 1018.28 1017.76 1017.71 1018.03 1017.93
1020.02 1020.53 1021.10 1021.59 1022.23 1022.50 1023.06 1023.67 1023.82 1023.62 1023.16 1022.38 1021.78 1021.34 1020.88 1020.55 1020.55 1020.91 1021.24 1021.56 1021.72 1021.91 1022.12 1022.08 1021.66 1021.52 1021.51 1021.75 1022.12 1022.22 1022.04 1021.66 1021.19 1020.85 1020.54 1019.51 1019.09 1018.43 1017.70 1017.13 1017.32 1017.52 1017.33
1020.21 1020.64 1021.19 1021.56 1021.79 1022.28 1022.86 1023.32 1023.33 1023.08 1022.48 1021.64 1021.11 1020.66 1020.20 1019.86 1019.66 1019.70 1020.14 1020.25 1020.71 1020.85 1021.52 1021.77 1021.52 1021.18 1021.16 1021.49 1021.93 1022.05 1022.00 1021.63 1020.99 1020.20 1019.85 1018.97 1018.56 1017.98 1017.52 1017.10 1016.83 1016.78 1016.86
1020.44 1020.98 1021.32 1021.57 1021.83 1022.03 1022.51 1022.74 1022.85 1022.30 1021.61 1020.90 1020.44 1019.97 1019.53 1019.20 1019.03 1019.11 1019.40 1019.15 1019.22 1019.36 1019.93 1020.55 1020.90 1021.19 1021.53 1021.98 1022.42 1022.18 1021.62 1021.06 1020.21 1019.56 1019.29 1018.84 1018.49 1018.03 1017.58 1016.83 1016.02 1016.23 1016.13
1020.70 1021.15 1021.53 1021.82 1021.90 1022.11 1021.84 1021.98 1022.32 1021.90 1021.04 1020.31 1019.89 1019.31 1018.92 1018.83 1018.75 1018.49 1018.57 1018.53 1018.41 1018.35 1018.67 1019.42 1020.33 1020.81 1021.24 1021.15 1021.93 1021.93 1021.17 1020.44 1019.80 1019.17 1018.88 1018.91 1018.37 1018.11 1017.31 1016.76 1016.04 1015.93 1015.34
Wind_Speed
6 6 6 7 6 7 6 5 6 6 6 6 5 6 7 7 6 5 5 14 14 9 6 6 7 6 6 6 6 6 6 7 8 8 9 6 6 8 9 11 13 14 16
6 7 6 6 6 5 5 5 5 5 4 5 6 6 6 6 6 5 4 9 14 14 11 8 8 7 5 5 4 5 6 7 8 9 10 9 6 9 10 11 13 15 15
8 8 7 6 5 5 7 6 6 4 4 4 5 4 3 3 4 3 3 3 9 13 13 10 9 7 6 6 6 7 8 9 11 11 12 8 8 12 12 10 12 14 15
10 8 7 6 6 6 6 5 4 3 3 2 2 2 1 1 1 1 1 1 1 1 10 8 8 7 7 8 9 10 11 12 13 13 14 14 10 12 8 10 13 15 15
10 7 6 6 8 6 5 5 4 1 3 2 2 3 3 3 4 2 3 3 2 1 2 9 6 7 7 7 8 9 10 12 13 14 16 17 18 17 14 14 15 15 16
9 8 6 7 7 6 5 5 5 2 0 1 3 3 3 3 3 4 4 3 3 1 3 5 2 6 6 6 7 7 10 11 13 15 16 17 18 18 20 19 18 18 18
11 10 7 8 7 6 5 5 5 5 3 2 3 5 5 5 5 4 5 4 4 4 3 3 4 5 4 7 2 7 9 11 13 15 17 18 19 20 21 22 22 21 20
12 10 9 9 8 6 7 7 5 4 3 4 5 5 6 6 6 6 5 4 4 4 4 4 5 5 5 5 5 4 6 10 13 15 17 18 20 21 22 22 23 22 21
12 11 11 10 10 7 7 8 8 8 5 4 8 5 4 5 2 8 7 6 5 6 4 5 5 5 6 6 4 4 6 7 10 14 16 18 20 21 22 23 24 24 24
12 12 12 11 11 8 8 8 7 7 7 6 4 7 6 5 5 4 6 6 6 7 6 6 6 6 6 7 4 2 3 7 11 14 18 20 22 24 24 25 26 27 27
10 13 12 11 10 7 8 9 7 7 6 5 5 3 5 4 5 6 8 5 5 6 4 5 5 6 7 6 7 3 6 10 14 17 20 21 23 24 25 26 27 28 29
7 11 13 11 10 9 9 7 6 6 7 6 5 5 5 5 5 6 7 7 6 5 5 6 6 6 6 6 7 1 9 14 15 17 19 20 21 22 23 24 25 26 27
7 10 9 8 5 6 9 9 5 4 8 8 6 5 5 5 5 5 6 7 7 5 5 5 7 6 6 7 8 3 12 16 13 17 19 20 21 22 23 23 24 24 25
7 12 8 11 11 9 9 4 5 7 9 6 7 7 5 5 5 5 6 6 7 8 8 9 6 6 6 8 8 9 13 13 14 16 20 21 21 22 23 23 24 25 25
11 11 12 11 9 8 9 9 9 9 7 8 8 8 7 5 5 5 6 7 7 9 9 8 7 6 5 8 8 11 13 17 16 19 19 19 21 22 23 24 24 24 26
13 14 12 9 7 8 8 11 9 8 9 5 7 8 7 5 6 6 7 7 7 9 11 8 8 8 7 8 10 10 13 16 19 15 17 18 21 22 23 24 25 25 25
14 13 12 11 12 10 12 8 9 8 6 7 8 10 10 8 7 7 7 8 8 9 11 9 9 9 8 11 11 11 12 13 12 14 14 18 20 22 23 22 21 22 23
9 11 13 13 12 12 9 9 9 4 3 10 13 12 11 8 11 11 8 10 10 10 10 14 11 10 11 9 12 12 11 11 12 14 14 19 21 21 20 20 21 23 23
11 11 12 12 10 10 11 9 6 3 6 14 13 13 13 14 13 11 11 10 10 9 9 10 11 9 9 9 10 11 11 12 10 15 15 15 15 17 19 22 22 22 22
12 12 12 12 10 11 10 7 4 6 12 12 12 14 14 16 16 14 14 13 11 10 10 10 10 10 9 9 8 10 10 9 10 11 13 10 14 18 21 21 20 20 20
8 8 10 6 10 8 6 4 3 8 12 13 14 15 17 18 17 16 12 13 12 11 9 10 10 10 9 9 9 8 10 10 11 10 10 9 11 11 12 12 16 16 13
9 8 9 9 9 4 7 2 6 8 13 14 14 15 16 16 16 16 18 14 11 12 12 11 11 11 12 10 8 8 9 10 11 8 11 11 11 11 11 10 6 11 17
9 8 8 8 7 5 4 6 6 8 12 15 15 15 15 13 13 16 18 14 12 10 12 12 13 12 12 10 10 10 10 10 11 11 11 12 10 11 11 10 6 12 15
10 10 9 8 6 7 5 7 9 7 13 16 16 17 17 18 17 14 17 15 16 14 14 11 14 13 11 10 10 10 10 12 11 10 10 12 10 10 11 11 13 11 8
7 5 4 6 8 10 5 10 10 11 14 16 15 16 16 17 16 13 16 17 16 14 8 11 10 7 3 4 9 9 9 10 10 10 9 8 9 11 11 12 7 4 13
1 2 2 3 5 8 13 10 9 10 13 11 15 16 14 15 16 13 16 16 16 14 13 13 12 14 14 14 16 14 10 10 10 10 8 8 10 11 9 11 7 11 10
Wind_Direction
150 145 146 155 154 154 140 133 129 114 120 104 80 60 55 51 39 18 72 37 32 30 98 111 108 108 96 73 55 58 35 24 19 11 5 14 14 16 16 14 10 3 358
154 151 156 151 160 153 139 131 133 137 94 100 87 64 57 50 44 15 38 89 48 48 53 57 64 85 82 74 43 22 0 354 344 339 342 343 353 356 353 355 357 351 347
168 160 163 169 157 127 121 138 133 115 106 86 85 90 90 62 64 49 20 17 124 71 61 60 55 47 30 9 356 349 339 343 338 335 331 323 331 322 327 340 339 337 333
174 179 171 164 148 160 151 140 135 117 113 107 111 111 105 104 119 111 57 293 59 144 117 59 55 42 30 17 0 347 338 333 329 324 319 313 304 309 316 316 320 324 319
178 188 170 160 175 157 152 153 128 162 128 140 172 187 193 201 198 188 157 150 105 310 357 112 85 59 25 11 353 341 335 333 331 329 328 325 324 321 311 311 314 308 308
181 189 161 165 175 163 162 152 124 122 84 180 230 220 226 219 218 209 186 208 159 237 288 310 274 117 85 16 354 343 334 333 334 331 326 319 315 315 312 308 300 300 302
184 187 164 172 186 182 158 143 139 162 152 184 240 214 221 225 222 222 220 221 188 241 311 290 292 321 155 150 76 349 337 333 330 326 323 318 314 309 304 300 298 297 296
191 183 179 178 192 163 158 155 167 170 178 200 278 297 279 193 204 221 226 222 223 255 241 251 306 287 286 304 51 299 335 330 325 326 322 319 316 312 307 303 299 296 296
191 185 188 183 178 181 170 175 184 188 195 197 245 297 288 277 41 162 209 237 230 248 267 246 247 277 284 293 272 295 40 342 324 319 317 315 311 307 304 301 300 299 297
192 193 191 186 178 178 179 182 182 187 207 210 207 254 277 307 277 262 180 205 227 250 250 279 299 270 267 280 311 183 17 339 327 320 313 309 306 302 299 298 296 295 295
197 197 189 186 183 185 180 177 175 204 222 228 243 208 230 236 248 278 282 261 196 226 238 267 294 288 280 282 294 14 13 322 316 314 311 307 304 301 299 297 296 295 294
195 200 190 190 183 182 173 174 180 219 236 231 238 229 241 251 266 247 264 267 279 276 288 297 280 276 294 288 299 111 309 316 314 311 310 307 304 302 300 298 296 294 292
194 197 196 191 176 172 162 173 192 198 229 236 224 229 239 246 266 270 276 279 285 280 271 270 281 281 289 294 290 0 300 301 299 302 304 305 303 302 300 295 295 295 293
185 182 169 189 193 164 171 149 194 219 230 231 225 240 244 235 237 258 273 282 279 275 268 268 230 266 279 285 320 283 285 306 296 300 299 300 300 297 295 294 294 293 293
196 173 179 188 179 169 162 180 220 220 217 221 231 234 239 250 250 258 260 266 272 280 281 292 299 271 270 271 294 299 294 297 314 296 293 297 296 295 295 295 294 296 295
199 187 181 180 132 182 195 210 210 210 229 235 245 237 240 254 251 247 255 245 254 266 280 288 293 304 303 292 294 292 287 295 281 279 285 287 294 297 297 293 291 294 294
201 185 168 156 185 203 199 197 213 214 219 255 249 246 242 245 244 241 242 252 259 264 273 281 290 295 260 271 287 294 296 293 291 290 298 297 299 298 294 293 292 293 292
182 172 173 185 193 203 189 205 197 224 260 266 252 240 244 241 238 247 246 249 258 263 276 282 289 293 288 294 296 292 288 293 293 294 303 298 294 292 290 288 292 290 291
182 186 185 189 176 180 189 180 156 182 252 253 256 246 243 245 245 247 245 252 254 259 266 273 280 285 289 288 281 286 291 291 287 300 283 283 285 286 288 287 288 287 288
194 184 182 183 181 182 179 152 133 253 258 259 265 258 255 252 254 249 249 249 256 265 269 265 270 280 284 284 281 280 287 300 301 307 293 272 264 271 268 270 273 276 280
175 175 156 138 169 157 149 95 254 269 266 266 261 257 256 255 257 256 256 248 248 252 261 265 270 277 280 277 285 303 291 300 301 297 303 307 309 300 289 266 253 257 303
153 140 138 127 134 167 105 194 261 273 279 276 273 273 271 255 243 239 238 247 258 249 246 261 274 275 278 277 282 283 291 296 300 311 319 308 300 300 295 280 329 308 298
119 117 127 147 161 178 203 242 271 281 281 279 280 281 278 271 251 253 224 229 226 230 243 262 266 267 273 276 282 279 278 291 299 308 302 298 302 301 298 298 292 306 301
135 151 156 174 206 243 233 236 258 277 273 278 280 280 277 276 271 248 250 219 225 220 226 229 247 264 262 265 269 275 286 283 281 287 296 298 307 302 306 306 290 275 291
146 158 194 236 239 247 247 269 268 282 285 283 284 283 279 277 271 221 236 239 232 232 197 211 256 280 284 257 262 284 272 275 286 296 305 302 311 315 311 298 276 341 301
95 36 346 320 270 261 249 242 265 289 285 284 286 284 266 256 276 206 223 233 234 233 226 217 227 238 241 240 228 243 260 267 282 289 294 292 306 308 313 291 324 308 309